Cloud_Cover
0 0 0 0 0 0 0 0 0 0 0 0 0 0 0 0 0 0 0 0 0 0 0 0 0 0 0 0 0 0 0 0 0 0 0 0 0 0 0 0 0 0 32 44 44 44 36 48 64 68 68 68 56 48 44 36 24 12 8 8 0 0 0 0 0 0 0 0 0 0 0 0 0 0 0 0 0 0 0 0 0 0 0 0 0 0 0 0 0 0 0 0 0 0 0 0 0 0 0 0 0 0 0
0 0 0 0 0 0 0 0 0 0 0 0 0 0 0 0 0 0 0 0 0 0 0 0 0 0 0 0 0 0 0 0 0 0 0 0 0 0 0 0 8 44 48 48 48 48 36 32 20 24 20 36 48 48 48 44 32 20 12 12 8 8 0 0 0 0 0 0 0 0 0 0 0 0 0 0 0 0 0 0 0 0 0 0 0 0 0 0 0 0 0 0 0 0 0 0 0 0 0 0 0 0 0
0 0 0 0 0 0 0 0 0 0 0 0 0 0 0 0 0 0 0 0 0 0 0 0 0 0 0 0 0 0 0 0 0 0 0 0 0 0 0 8 20 36 48 56 48 44 36 24 20 12 12 12 20 48 48 48 44 32 24 20 20 12 12 8 8 12 0 0 0 0 0 0 0 0 0 0 0 0 0 0 0 0 0 0 0 0 0 0 0 0 0 0 0 0 0 0 0 0 0 0 0 0 0
0 0 0 0 0 0 0 0 0 0 0 0 0 0 0 0 0 0 0 0 0 0 0 0 0 0 0 0 0 0 0 0 0 0 0 0 0 0 0 0 12 12 20 32 44 56 56 48 44 44 32 24 20 12 36 56 64 64 56 48 36 32 20 8 8 24 12 0 0 0 0 0 0 0 0 0 0 0 0 0 0 0 0 0 0 0 0 0 0 0 0 0 0 0 0 0 0 0 0 0 0 0 0
0 0 0 0 0 0 0 0 0 0 0 0 0 0 0 0 0 0 0 0 0 0 0 0 0 0 0 0 0 0 0 0 0 0 0 0 0 0 0 0 0 0 0 0 12 24 24 24 24 24 24 20 12 32 24 24 32 64 68 68 68 76 64 48 44 44 32 20 8 0 0 0 0 0 0 0 0 0 0 0 0 0 0 0 0 0 0 0 0 0 0 0 0 0 0 0 0 0 0 0 0 0 0
0 0 0 0 0 0 0 0 0 0 0 0 0 0 0 0 0 0 0 0 0 0 0 0 0 0 0 0 0 0 0 0 0 0 0 0 0 0 0 0 0 0 0 0 8 8 8 0 0 0 0 0 0 8 12 20 24 24 44 64 80 88 92 80 76 56 36 24 20 8 0 0 0 0 0 0 0 0 0 0 0 0 0 0 0 0 0 0 0 0 0 0 0 0 0 0 0 0 0 0 0 0 0
0 0 0 0 0 0 0 0 0 0 0 0 0 0 0 0 0 0 0 0 0 0 0 0 0 0 0 0 0 0 0 0 0 0 0 0 0 0 0 0 0 0 0 0 8 8 12 8 0 0 0 0 0 0 0 0 0 0 0 8 20 64 64 64 64 68 44 32 20 12 0 0 0 0 0 0 0 0 0 0 0 0 0 0 0 0 0 0 0 0 0 0 0 0 0 0 0 0 0 0 0 0 0
0 0 0 0 0 0 0 0 0 0 0 0 0 0 0 0 0 0 0 0 0 0 0 0 0 0 0 0 0 0 0 0 0 0 0 0 0 0 0 0 0 0 0 0 8 8 8 0 0 0 8 8 8 0 0 0 0 0 0 0 0 8 36 44 44 44 36 36 32 24 20 8 0 0 0 0 0 0 0 0 0 0 0 0 0 0 0 0 0 0 0 0 0 0 0 0 0 0 0 0 0 0 0
0 0 0 0 0 0 0 0 0 0 0 0 0 0 0 0 0 0 0 0 0 0 0 0 0 0 0 0 0 0 0 0 0 0 0 0 0 0 0 0 0 0 0 0 0 12 20 24 32 24 24 20 8 0 0 0 0 0 0 0 0 0 8 8 12 32 32 32 24 20 12 8 0 0 0 0 0 0 0 0 0 0 0 0 0 0 0 0 0 0 0 0 0 0 0 0 0 0 0 0 0 0 0
0 8 0 0 0 0 0 0 0 0 0 0 0 0 0 0 0 0 0 0 0 0 0 0 0 0 0 0 0 0 0 0 0 0 0 0 0 0 0 0 0 0 0 0 0 0 0 8 24 24 24 12 0 0 0 8 0 0 0 0 0 0 0 12 20 12 12 8 8 12 8 8 8 0 0 0 0 0 0 0 0 0 0 0 0 0 0 0 0 0 0 0 0 0 0 0 0 0 0 0 0 0 0
12 8 0 0 0 0 0 0 0 0 0 0 0 0 0 0 0 0 0 0 0 0 0 0 0 0 0 0 0 0 0 0 0 0 0 0 0 0 0 0 0 0 0 0 0 0 0 0 0 8 0 0 0 0 0 0 0 0 0 0 0 0 0 0 0 0 0 0 0 0 0 0 0 0 0 0 0 0 0 0 0 0 0 0 0 0 0 0 0 0 0 0 0 0 0 0 0 0 0 0 0 0 0
20 8 0 0 0 0 0 0 0 0 0 0 0 0 0 0 0 0 0 0 0 0 0 0 0 0 0 0 0 0 0 0 0 0 0 0 0 0 0 0 0 0 0 0 0 0 0 0 0 0 0 0 0 0 0 0 0 0 0 0 0 0 0 0 0 0 0 0 0 0 0 0 0 0 0 0 0 0 0 0 0 0 0 0 0 0 0 0 0 0 0 0 0 0 0 0 0 0 0 0 0 0 0
20 8 0 0 0 0 0 0 0 0 0 0 0 0 0 0 0 0 0 0 0 0 0 0 0 0 0 0 0 0 0 0 0 0 0 0 0 0 0 0 0 0 8 0 0 0 0 0 0 0 0 0 0 0 0 0 0 0 0 0 0 0 0 0 0 0 0 0 0 0 0 0 0 0 0 0 0 0 0 0 0 0 0 0 0 0 0 0 0 0 0 0 0 0 0 0 0 0 0 0 0 0 0
12 12 0 0 0 0 0 0 0 0 0 0 0 0 0 0 0 0 0 0 0 0 0 0 0 0 0 0 0 0 0 0 0 0 0 0 0 0 0 0 0 0 0 0 0 0 0 0 0 0 0 0 0 0 0 0 0 0 0 0 0 0 0 0 0 0 0 0 0 0 0 0 0 0 0 0 0 0 0 0 0 0 0 0 0 0 0 0 0 0 0 0 0 0 0 0 0 0 0 0 0 0 0
8 0 0 0 0 0 0 0 0 0 0 0 0 0 0 0 0 0 0 0 0 0 0 0 0 0 0 0 0 0 0 0 0 0 0 0 0 0 0 0 0 0 0 0 0 0 0 0 0 0 0 0 0 0 0 0 0 0 0 0 0 0 0 0 0 0 0 0 0 0 0 0 0 0 0 0 0 0 0 0 0 0 0 0 0 0 0 0 0 0 0 0 0 0 0 0 0 0 0 0 0 0 0
0 0 0 0 0 0 0 0 0 0 0 0 0 0 0 0 0 0 0 0 0 0 0 0 0 0 0 0 0 0 0 0 0 0 0 0 0 0 0 0 0 0 0 0 0 0 0 0 0 0 0 0 0 0 0 0 0 0 0 0 0 0 0 0 0 0 0 0 0 0 0 0 0 0 0 0 0 0 0 0 0 0 0 0 0 0 0 0 0 0 0 0 0 0 0 0 0 0 0 0 0 0 0
0 0 0 0 0 0 0 0 0 0 0 0 0 0 0 0 0 0 0 0 0 0 0 0 0 0 0 0 0 0 0 0 0 0 0 0 0 0 0 0 0 0 0 0 0 0 0 0 0 0 0 0 0 0 0 0 0 0 0 0 0 0 0 0 0 0 0 0 0 0 0 0 0 0 0 0 0 0 0 0 0 0 0 0 0 0 0 0 0 0 0 0 0 0 0 0 0 0 0 0 0 0 0
0 0 0 0 0 0 0 0 0 0 0 0 0 0 0 0 0 0 0 0 0 0 0 0 0 0 0 0 0 0 0 0 0 0 0 0 0 0 0 0 0 0 0 0 0 0 0 0 0 0 0 0 0 0 0 0 0 0 0 0 0 0 0 0 0 0 0 0 0 0 0 0 0 0 0 0 0 0 0 0 0 0 0 0 0 0 0 0 0 0 0 0 0 0 0 0 0 0 0 0 0 0 0
0 0 0 0 0 0 0 0 0 0 0 0 0 0 0 0 0 0 0 0 0 0 0 0 0 0 0 0 0 0 0 0 0 0 0 0 0 0 0 0 0 0 0 0 0 0 0 0 0 0 0 0 0 0 0 0 0 0 0 0 0 0 0 0 0 0 0 0 0 0 0 0 0 0 0 0 0 8 8 0 0 0 0 0 0 0 0 0 0 0 0 0 0 0 0 0 0 0 0 0 0 0 0
0 0 0 0 0 0 0 0 0 0 0 0 0 0 0 0 0 0 0 0 0 0 0 0 0 0 0 0 0 0 0 0 0 0 0 0 0 0 0 0 0 0 0 0 0 0 0 0 0 0 0 0 0 0 0 0 0 0 0 0 0 0 0 0 0 0 0 0 0 0 0 0 0 0 0 0 0 0 8 8 0 0 0 0 0 0 0 0 0 0 0 0 0 0 0 0 0 0 0 0 0 0 0
0 0 0 0 0 0 0 0 0 0 0 0 0 0 0 0 0 0 0 0 0 0 0 0 0 0 0 0 0 0 0 0 0 0 0 0 0 0 0 0 0 0 0 0 0 0 0 0 0 0 0 0 0 0 0 0 0 0 0 0 0 0 0 0 0 0 0 0 0 0 0 0 0 0 0 0 0 0 8 8 0 0 0 0 0 0 0 0 0 0 0 0 0 0 0 0 0 0 0 0 0 0 0
0 0 0 0 0 0 0 0 0 0 0 0 0 0 0 0 0 0 0 0 0 0 0 0 0 0 0 0 0 0 0 0 0 0 8 8 8 8 8 8 8 8 8 8 8 0 0 0 0 0 0 0 0 0 0 0 0 0 0 0 0 0 0 0 0 0 0 0 0 0 0 0 8 12 8 0 0 0 20 20 24 20 20 12 8 0 0 0 0 0 0 0 0 0 0 0 0 0 0 0 0 0 0
0 0 0 0 0 0 0 0 0 0 0 0 0 0 0 0 0 0 0 0 0 0 0 0 0 0 0 0 0 0 0 0 0 8 12 12 12 12 20 20 20 20 20 20 20 12 12 8 12 12 0 8 12 0 12 8 0 8 0 0 0 0 8 8 8 20 32 20 8 8 20 32 44 44 32 32 36 56 64 64 56 48 48 48 36 32 24 12 0 0 0 0 0 0 0 0 0 0 0 0 0 0 0
0 0 0 0 0 0 0 0 0 0 0 0 0 0 0 0 0 0 0 0 0 0 0 0 0 0 0 0 0 0 0 8 8 12 12 20 20 20 20 24 36 44 36 36 32 20 32 32 24 44 44 48 44 24 12 24 44 64 24 12 8 0 8 12 24 36 32 20 8 24 44 48 44 32 24 24 32 64 76 76 76 68 68 68 64 56 56 44 32 20 12 20 20 12 0 0 0 0 0 0 0 0 0
0 0 0 0 0 0 0 0 0 0 0 0 0 0 0 0 0 0 0 0 0 0 0 0 0 0 0 0 0 8 8 8 12 20 24 24 32 32 32 48 76 64 56 56 48 44 68 76 68 68 68 68 76 76 68 76 80 80 76 68 68 68 36 36 48 76 64 56 48 36 36 36 36 32 20 12 12 32 68 76 68 80 76 68 64 76 76 68 64 48 56 64 64 48 36 12 0 0 0 0 0 0 0
0 0 0 0 0 0 0 0 0 0 0 0 0 0 0 0 0 0 0 0 0 0 0 0 0 0 0 0 0 8 8 8 12 24 36 36 36 36 36 64 80 68 68 76 88 80 88 88 88 88 88 88 88 88 88 88 88 88 88 88 88 88 80 80 80 88 88 76 56 48 68 76 64 48 68 76 68 48 56 64 68 80 88 68 48 56 48 56 76 76 76 80 76 68 64 44 20 0 0 0 0 0 0
0 0 0 0 0 0 0 0 0 0 0 0 0 0 0 0 0 0 0 0 0 0 0 0 0 0 0 0 0 0 0 8 20 36 44 44 44 48 48 64 76 88 88 92 92 92 92 92 92 92 92 88 88 88 88 88 88 88 88 88 88 88 88 88 88 88 88 88 88 80 76 80 80 56 76 76 76 88 88 88 88 80 80 76 68 48 44 44 48 44 48 48 56 80 76 68 48 20 20 12 0 0 0
0 0 0 0 0 0 0 0 0 0 0 0 0 0 0 0 0 0 0 0 0 0 0 0 0 0 0 0 0 0 8 12 24 36 36 48 56 56 48 68 88 92 92 92 92 92 92 92 92 92 92 92 92 92 88 88 88 88 88 88 88 88 88 88 88 88 64 64 64 48 44 48 64 88 56 44 56 68 68 64 64 80 92 92 80 64 48 64 68 48 56 56 44 48 56 64 68 44 48 36 24 12 20
0 0 0 0 0 0 0 0 0 0 0 0 0 0 0 0 0 0 0 0 0 0 0 0 0 0 0 0 0 0 8 24 32 36 44 48 56 56 80 88 92 92 92 92 92 92 92 88 88 76 76 76 80 92 92 92 88 88 88 88 88 88 88 88 88 88 48 64 88 88 88 68 48 36 48 68 80 88 92 80 76 92 68 76 92 88 80 68 64 76 88 76 48 36 44 44 44 56 68 56 36 44 48
0 0 0 0 0 0 0 0 0 0 0 0 0 0 0 0 0 0 0 0 0 0 0 0 0 0 0 0 0 8 20 36 48 56 64 68 80 92 92 92 92 92 92 92 80 56 48 56 56 64 64 76 80 64 68 68 76 92 88 88 88 88 88 88 88 88 88 88 88 88 88 88 88 88 88 88 80 48 80 92 92 92 64 76 92 92 92 76 68 92 92 76 56 56 56 44 36 36 64 68 64 64 64
0 0 0 0 0 0 0 0 0 0 0 0 0 0 0 0 0 0 0 0 0 0 0 0 0 0 0 0 8 20 32 48 64 64 76 88 92 92 92 92 92 92 92 76 64 56 56 68 88 88 88 68 44 48 56 64 64 64 48 36 44 64 80 88 88 88 88 88 88 88 88 88 80 56 80 88 80 48 80 92 92 92 92 92 92 92 92 88 88 88 92 76 56 56 56 48 44 36 44 56 64 56 64
0 0 0 0 0 0 0 0 0 0 0 0 0 0 0 0 0 0 0 0 0 0 0 0 0 0 0 8 12 24 44 68 92 92 92 92 92 92 80 88 92 92 80 68 64 64 48 68 88 88 88 68 56 48 48 56 64 68 56 48 44 36 44 68 88 88 88 88 88 88 88 76 68 88 88 88 92 92 92 92 92 92 92 92 92 92 92 92 92 92 92 92 92 88 64 56 48 48 48 56 56 36 48
0 0 0 0 0 0 0 0 0 0 0 0 0 0 0 0 0 0 0 0 0 0 0 0 0 0 0 8 20 44 80 92 92 92 92 92 92 92 80 80 76 64 56 56 48 36 36 56 68 32 36 44 48 56 44 36 44 56 64 64 64 48 80 88 88 88 88 88 88 88 88 88 88 88 64 76 92 88 88 92 92 92 92 92 92 92 92 92 92 92 92 92 88 68 56 48 48 48 56 48 48 48 48
0 0 0 0 0 0 0 0 0 0 0 0 0 0 0 0 0 0 0 0 0 0 0 0 0 0 0 20 48 92 92 92 92 92 92 92 88 80 76 64 64 64 48 44 56 88 64 36 24 20 32 64 76 36 36 36 48 80 68 64 56 64 80 88 88 88 80 88 88 88 88 88 88 88 88 92 92 92 88 92 92 92 88 92 92 92 92 92 92 92 92 92 92 92 64 48 48 44 44 44 48 68 76
0 0 0 0 0 0 0 0 0 0 0 0 0 0 0 0 0 0 0 0 0 8 8 12 20 20 32 44 68 92 92 92 92 88 88 80 76 76 68 76 88 88 76 56 48 56 48 56 64 56 56 64 56 56 68 64 56 64 48 48 64 88 88 88 88 88 88 88 88 88 88 88 88 88 88 88 88 88 92 92 92 92 76 80 92 92 92 88 88 92 92 92 92 88 68 56 48 48 36 64 80 56 76
0 0 0 0 0 0 0 0 0 0 0 0 0 0 0 0 0 0 12 24 36 56 56 68 80 88 88 88 92 92 92 88 80 68 76 76 76 68 76 68 64 68 80 64 48 48 64 68 76 76 80 80 76 80 64 64 68 64 56 64 80 88 88 88 88 88 88 92 92 92 92 92 92 92 88 88 88 88 92 92 92 92 92 92 92 92 92 76 68 92 92 92 92 92 76 56 48 48 44 56 68 56 64
0 0 0 0 0 0 0 0 0 0 0 0 0 0 0 0 0 0 64 88 80 80 80 80 88 88 88 92 92 92 92 80 68 76 76 76 76 76 68 76 76 68 64 64 64 64 80 88 88 88 88 88 76 64 64 64 68 88 56 56 68 80 88 88 88 80 88 92 92 92 92 92 92 92 92 92 92 92 92 92 92 92 92 92 92 92 92 92 92 92 92 92 92 92 88 76 64 64 56 56 68 92 48
0 0 0 0 0 0 0 0 0 0 0 0 0 0 0 0 8 32 68 80 80 80 80 80 88 88 92 92 92 92 92 80 76 80 80 76 76 92 80 80 76 64 68 80 88 80 88 88 88 88 88 80 76 76 80 80 80 76 64 76 88 88 92 92 88 68 88 92 92 92 92 92 92 92 92 92 92 92 92 92 92 92 92 92 88 80 88 92 92 88 92 92 92 88 80 88 88 88 92 88 80 76 64
0 0 0 0 0 0 0 0 0 0 0 0 0 0 8 20 44 80 80 80 80 80 88 88 88 92 92 92 92 92 92 88 80 76 76 76 68 80 76 76 76 68 76 80 88 88 88 88 88 88 88 80 76 76 76 76 76 76 88 88 88 88 92 92 92 92 92 92 92 92 92 92 92 92 92 92 92 92 92 92 92 92 92 92 88 76 88 92 92 92 92 92 92 88 68 76 80 64 80 68 44 56 80
0 0 0 0 0 0 0 0 0 0 24 20 0 8 44 68 80 80 80 80 80 80 88 88 92 92 92 92 92 92 92 88 80 80 76 76 68 68 68 68 68 68 76 76 80 88 88 88 88 88 88 88 88 80 80 88 88 88 88 88 92 88 92 92 92 92 92 92 92 92 92 92 92 92 92 92 92 92 92 92 92 92 92 92 92 92 92 92 92 92 92 92 92 92 88 88 76 44 68 64 56 56 64
0 0 0 0 0 0 0 0 8 36 76 64 36 44 76 80 80 80 80 80 80 88 88 92 92 92 92 92 92 92 92 88 80 80 76 76 76 80 68 68 76 80 76 68 68 80 88 88 88 88 88 88 88 88 88 88 88 88 88 88 88 88 92 92 92 92 92 92 92 88 80 80 88 92 92 92 92 92 92 92 92 92 92 92 92 92 92 92 92 92 92 92 92 92 88 76 64 44 44 56 64 44 24
0 0 0 0 0 0 0 0 20 80 80 80 80 80 80 80 80 80 80 80 80 88 88 92 92 92 92 92 88 88 88 80 80 80 76 76 76 88 76 80 88 88 76 76 80 80 88 92 92 92 88 88 88 88 92 92 88 88 88 88 92 92 92 92 92 92 92 92 92 80 76 76 80 92 92 92 92 92 92 92 92 92 92 92 92 92 92 92 92 92 92 92 92 92 92 80 68 68 48 48 64 88 44
0 0 0 0 0 0 0 0 24 80 80 80 80 80 80 80 80 80 80 80 88 88 88 92 92 92 92 92 88 76 80 88 88 88 80 80 80 76 76 80 88 88 88 88 92 88 92 92 92 92 92 88 88 92 92 92 92 92 92 92 92 92 92 92 92 92 92 92 92 92 88 88 92 92 92 92 92 92 92 92 92 92 92 92 92 92 92 92 92 92 92 92 92 92 92 88 80 76 68 76 88 92 68
0 0 0 0 0 0 0 0 24 80 80 80 80 80 80 80 80 80 80 88 88 88 92 92 92 92 92 88 80 76 88 88 88 88 88 88 80 68 64 76 80 80 88 92 92 88 92 92 92 92 92 92 92 92 92 92 92 92 92 92 92 92 92 92 92 92 92 92 92 92 92 92 92 92 92 92 92 92 92 92 92 92 92 92 92 92 92 92 92 92 92 92 92 92 92 88 80 80 76 68 68 68 88
0 0 0 0 0 0 0 0 24 80 80 80 80 80 80 80 80 80 80 88 88 88 92 92 92 92 92 88 80 88 88 88 88 88 76 68 68 68 64 68 80 88 92 92 92 92 88 88 92 92 92 92 92 92 92 92 92 92 92 92 92 92 92 92 92 92 92 92 92 88 88 88 92 92 92 92 88 80 88 92 92 92 92 92 92 92 92 92 92 92 92 92 92 92 92 92 92 92 80 76 76 76 88
0 0 0 0 0 0 0 0 24 76 80 80 80 80 80 80 80 80 88 88 88 88 92 92 92 92 92 88 88 92 92 92 88 76 64 64 68 76 76 80 88 92 92 92 92 92 92 92 88 92 92 92 92 92 92 92 92 92 92 92 92 92 92 92 92 92 92 92 92 88 80 76 76 92 92 92 88 88 88 92 92 92 92 92 92 92 92 92 92 92 92 92 92 92 92 92 88 80 88 92 92 92 88
0 0 0 0 0 0 0 0 8 24 44 64 80 80 80 80 80 80 88 88 88 92 92 92 92 92 92 92 88 88 88 88 88 68 64 68 76 76 88 92 92 92 92 92 92 92 92 92 92 92 88 92 92 92 92 92 92 92 92 92 92 92 92 92 92 92 92 92 92 92 88 80 80 92 92 92 92 92 92 92 92 92 92 92 92 92 92 92 92 92 92 92 92 92 92 92 92 88 92 92 88 92 92
0 0 0 0 0 0 0 0 0 0 20 36 48 80 80 80 80 80 88 88 92 92 92 92 92 92 92 92 92 88 80 88 88 76 68 76 88 88 92 92 92 92 92 92 92 92 92 92 92 92 88 88 88 88 88 92 92 88 88 88 88 92 88 88 88 88 88 88 88 92 92 92 92 92 92 92 92 92 92 92 92 92 92 88 88 92 92 92 92 92 92 92 92 92 92 92 92 92 92 92 92 92 76
0 0 0 0 0 0 0 0 0 0 20 36 56 80 80 80 80 80 88 88 88 88 92 92 92 92 92 92 92 80 88 88 80 76 76 80 88 92 92 92 92 92 92 92 92 92 92 92 92 92 92 92 92 92 92 88 88 88 88 88 92 92 92 92 88 92 88 88 88 92 92 92 92 92 88 88 88 88 92 92 92 92 92 92 92 92 92 92 92 92 92 92 88 76 88 92 92 92 92 92 92 92 76
0 0 0 0 0 0 0 0 0 0 0 20 44 80 80 80 80 80 88 88 88 88 92 92 92 92 92 92 92 80 80 76 76 76 88 88 88 88 92 92 92 92 92 92 92 92 92 92 92 92 92 92 92 92 92 92 92 88 92 92 92 92 92 92 92 92 92 92 92 92 92 92 92 92 92 92 92 92 92 92 92 92 92 92 88 80 64 48 64 92 92 92 92 88 92 92 92 92 88 88 88 76 80
0 0 0 0 0 0 0 0 0 0 0 20 48 80 80 80 80 80 88 88 88 88 92 92 92 92 92 92 88 76 80 76 76 80 88 88 80 76 76 76 80 92 92 92 92 92 92 92 92 92 92 92 92 92 92 92 92 92 92 92 92 92 92 92 92 92 92 92 92 92 92 92 92 92 92 92 92 92 92 92 92 92 92 92 92 88 68 56 48 48 56 56 64 92 92 92 92 92 80 80 88 56 76
0 0 0 0 0 0 0 0 0 0 20 48 68 64 76 80 80 88 88 88 88 92 92 92 92 92 92 92 88 76 80 76 76 80 88 88 80 76 64 68 88 92 92 92 92 92 92 92 92 92 92 92 92 92 92 92 92 92 92 92 92 92 92 92 92 92 92 92 92 92 92 92 92 92 92 92 92 92 92 92 92 92 92 92 92 88 88 80 76 68 68 56 48 92 92 92 92 92 76 76 76 56 68
0 0 0 0 0 0 0 0 12 48 48 64 80 80 80 80 80 88 88 88 88 92 92 92 92 92 92 88 80 80 80 76 68 88 92 92 88 76 68 80 92 92 92 92 92 92 92 92 92 92 92 92 92 92 92 92 92 92 92 92 92 92 92 92 92 92 92 92 92 92 92 92 92 92 92 92 92 92 92 92 92 92 92 92 92 92 92 92 92 92 92 80 68 56 80 92 92 92 92 92 88 76 76
0 0 0 0 0 0 0 8 20 56 76 76 80 80 80 80 80 88 88 88 88 92 92 92 92 92 92 88 80 76 80 76 76 88 92 92 88 80 76 76 80 88 92 92 92 92 92 92 92 92 92 92 92 92 92 92 92 92 92 92 92 92 92 92 92 92 92 92 92 92 92 92 92 92 92 92 92 92 92 92 92 92 92 92 92 92 92 92 92 92 92 92 88 76 88 92 92 92 92 92 92 92 92
0 0 8 20 32 56 48 32 24 32 64 76 80 80 80 80 88 88 88 88 88 92 92 92 92 92 92 88 80 76 88 80 80 88 88 92 92 88 80 76 80 80 80 88 88 92 88 92 92 88 88 92 92 92 92 92 92 92 92 92 92 92 92 92 92 92 92 92 92 92 92 92 92 92 92 92 92 92 92 92 92 92 92 92 92 92 92 92 92 92 92 92 92 92 92 92 92 92 88 88 88 76 56
0 0 24 44 48 76 76 76 76 76 76 80 80 80 80 80 88 88 80 88 88 92 92 92 92 92 92 92 88 76 80 88 88 76 88 92 92 92 80 76 76 80 80 80 88 92 92 92 92 88 92 92 92 92 92 92 92 92 92 92 92 92 92 92 92 92 92 92 92 92 92 92 92 92 92 92 92 92 92 92 92 92 92 92 92 92 92 92 92 92 92 92 92 92 92 92 92 92 92 80 68 68 48
0 0 56 56 48 76 76 76 76 76 80 80 80 80 80 88 88 88 88 88 88 92 92 92 92 92 92 92 88 80 76 80 88 80 88 88 92 92 88 88 80 80 80 88 88 92 92 92 92 88 92 92 92 92 92 92 92 92 92 92 92 92 92 92 92 92 92 92 92 92 92 92 92 92 92 92 92 92 92 92 92 92 92 88 88 92 92 92 92 92 92 92 92 92 92 92 92 80 92 92 92 92 48
8 20 44 44 36 68 68 76 76 76 80 80 80 80 80 88 88 88 88 88 88 92 92 92 92 92 92 92 92 80 80 80 92 92 92 92 92 92 92 92 92 92 92 92 92 88 88 92 88 88 88 92 92 92 92 92 88 92 92 92 92 92 92 92 92 92 92 92 92 92 92 92 92 92 92 92 92 92 92 92 88 88 92 88 88 92 92 92 92 88 92 92 92 92 92 92 92 92 92 92 92 92 80
8 24 48 64 64 44 64 76 76 80 80 80 80 80 80 80 80 80 88 88 92 92 92 92 92 92 92 92 92 88 80 88 92 92 92 92 92 92 92 92 92 92 92 92 92 92 92 92 92 92 88 88 88 88 92 92 92 88 88 88 92 92 92 92 92 100 92 92 92 92 92 92 92 92 92 92 92 92 92 92 92 92 92 92 92 92 88 88 92 92 92 92 92 92 92 92 92 92 92 92 92 92 80